Regional Weather Roundup
Issued by NWS

Home | Current Version | Previous Version | Graphics & Text | Print | Product List | Glossary On
Versions: 1 2 3 4 5 6 7 8 9 10 11 12 13 14 15 16 17 18 19 20 21 22 23 24 25 26 27 28 29 30 31 32 33 34 35 36 37 38 39 40 41 42 43 44 45 46 47 48 49 50
103
ASUS43 KFSD 300910
RWRSD

WEATHER ROUNDUP FOR SOUTH DAKOTA
NATIONAL WEATHER SERVICE SIOUX FALLS SD
400 AM CDT MON MAY 30 2016

NOTE: "FAIR" INDICATES FEW OR NO CLOUDS BELOW 12,000 FEET WITH NO
SIGNIFICANT WEATHER AND/OR OBSTRUCTIONS TO VISIBILITY.


SDZ001>005-009-010-012>017-301000-
NORTHWEST AND NORTH CENTRAL SOUTH DAKOTA

CITY           SKY/WX    TMP DP  RH WIND       PRES   REMARKS
BUFFALO          N/A     54  48  80 SE3       29.86F
FAITH            N/A     56  50  80 SE14      29.92F
MOBRIDGE       CLEAR     58  53  84 SE8       29.91S
$$

SDZ012>016-024>037-041>051-057-063-072>074-301000-
SOUTHWEST AND SOUTH CENTRAL SOUTH DAKOTA

CITY           SKY/WX    TMP DP  RH WIND       PRES   REMARKS
RAPID CTY ARPT CLOUDY    51  49  92 VRB3      29.94S
PIERRE         CLOUDY    60  55  83 SE13G22   29.91F
CUSTER         CLOUDY    47  41  80 N5        30.03F
ELLSWORTH AFB  CLEAR     54  51  90 W3        29.92F
PHILIP         CLOUDY    54  52  93 CALM      29.89F
PINE RIDGE     CLOUDY    60  51  72 S14       29.96S
WINNER         FAIR      62  57  83 SE16G24   29.96R
$$

SDZ004>011-016>023-039-040-301000-
NORTHEAST SOUTH DAKOTA

CITY           SKY/WX    TMP DP  RH WIND       PRES   REMARKS
ABERDEEN       CLOUDY    53  49  86 S5        29.96S
WATERTOWN      CLOUDY    58  51  78 S3        29.99S
BROOKINGS      CLOUDY    58  52  80 SE5       30.00R
SISSETON         N/A     53  46  77 S6        29.95S
$$

SDZ017-020-022-023-036>040-048>070-301000-
SOUTHEAST SOUTH DAKOTA

CITY           SKY/WX    TMP DP  RH WIND       PRES   REMARKS
SIOUX FALLS    CLOUDY    63  53  70 S5        30.02R
HURON          HVY RAIN  62  56  80 SW13      29.99R
CHAMBERLAIN    MOCLDY    65  57  77 E6        29.98S
MITCHELL       RAIN      64  58  80 S12       30.03R
YANKTON        CLOUDY    63  57  82 N13       29.98F
$$

ABBREVIATIONS USED IN REMARKS
   TC - TEMPERATURE IN CELSIUS
  WCI - WIND CHILL INDEX
   HX - HEAT INDEX
  VSB - VISIBILITY





USA.gov is the U.S. government's official web portal to all federal, state and local government web resources and services.